www.pogodaiklimat.ru

Погода и климат >> Архив погоды >> Россия >> Свердловская область >> Екатеринбург


АРХИВ ПОГОДЫ в Екатеринбурге

Время (UTC), дата Ветер
(напр.,м/с)
 
Видим.   Явления Облачность Т
(С)
Тd
(С)
f
(%)
Тe
(С)
Тes
(С)
Комфортность P
(гПа)
Po
(гПа)
Тmin
(С)
Tmax
(С)
R
(мм)
R24
(мм)
S
(см)
15 13.08 ЮЗ 2 50 км 3/3 600 м
[Cu hum]
+24.8 +12.6 47 +27 +27 жарко 1007.7 976.0 +28.2
18 13.08 ЮЗ 3 10 км ясно +21.0 +13.2 61 +24 +24 комфорт 1008.7 976.6
21 13.08 Ю 2 10 км ясно +18.5 +12.8 69 +20 +20 тепло 1008.9 976.5
00 14.08 Ю 1 10 км 9/0
[Cs]
+16.4 +12.2 76 +17 +17 тепло 1008.8 976.2
03 14.08 ЮВ 1 20 км 9/8 600 м
[Sc Cs]
+18.5 +13.3 72 +20 +21 тепло 1008.8 976.4 +16.3
06 14.08 Ю 2 20 км 9/8 600 м
[Sc Cs]
+22.4 +13.8 58 +26 +27 жарко 1008.1 976.2
09 14.08 Ю 2 20 км слабый ливневой дождь 9/9 600 м
[Cb cap]
+18.7 +13.3 71 +20 +21 тепло 1009.1 976.8
12 14.08 ЮЗ 2 20 км {ливн. осадки} 10/10 600 м
[Cb calv]
+18.8 +14.5 76 +20 +20 по сезону 1008.2 975.9
15 14.08 З 3 20 км 9/8 600 м
[Cb calv Cc]
+19.1 +14.7 76 +21 +21 комфорт 1007.8 975.6 +23.1
18 14.08 СЗ 2 10 км 8/6 600 м
[Sc Cs]
+17.3 +14.0 81 +18 +18 тепло 1008.1 975.7
21 14.08 З 2 10 км 9/9 600 м
[Cb calv]
+16.1 +13.8 86 +16 +16 тепло 1007.8 975.2
00 15.08 СЗ 2 10 км слабый ливневой дождь 10/10 600 м
[Cb cap]
+15.1 +13.0 87 +15 +15 тепло 1007.8 975.1
03 15.08 СЗ 3 10 км слабый ливневой дождь 10/10 600 м
[Cb cap]
+14.3 +12.1 87 +13 +13 по сезону 1008.8 976.0 +14.3 1
06 15.08 СЗ 3 10 км слабый дождь {ливн. осадки} 10/0
[Ac As]
+15.4 +12.7 84 +15 +17 по сезону 1008.8 976.1
09 15.08 С 4 20 км {дождь} 10/8 1000 м
[Sc Cs]
+18.2 +12.2 68 +18 +19 по сезону 1009.0 976.6
12 15.08 СЗ 5
{11}
50 км {дождь} 10/5 1000 м
[Cb cap Ci fib]
+20.6 +11.0 54 +22 +23 комфорт 1009.2 977.0
15 15.08 СЗ 3
{10}
50 км 10/4 1000 м
[Cb cap Ci fib]
+19.4 +11.0 58 +21 +21 комфорт 1010.9 978.6 +21.1 0.5
18 15.08 СЗ 2 10 км 6/3 1000 м
[Sc Ci fib]
+16.1 +9.4 64 +16 +16 по сезону 1012.7 979.9
21 15.08 СЗ 2 10 км ясно +14.0 +9.6 75 +14 +14 по сезону 1013.4 980.3
00 16.08 З 2 20 км 3/0
[Ci fib]
+12.5 +9.0 79 +12 +12 по сезону 1014.6 981.4
03 16.08 З 3 20 км 3/0
[Ci fib]
+14.1 +9.6 74 +13 +15 по сезону 1015.1 982.0 +11.7
06 16.08 З 3 50 км 8/8 600 м
[Cu hum]
+19.6 +10.1 54 +21 +23 комфорт 1014.1 981.6
09 16.08 З 4 50 км 9/6 600 м
[Cu med, cong Cs]
+22.5 +8.9 42 +24 +26 комфорт 1012.6 980.5
12 16.08 ЮЗ 3 50 км слабый ливневой дождь 9/9 600 м
[Cb cap]
+19.3 +9.8 54 +20 +21 тепло 1012.4 980.0
15 16.08 ЮЗ 3 50 км {ливн. осадки} 9/8 600 м
[Cb calv Cs]
+18.6 +10.9 61 +19 +19 тепло 1010.6 978.2 +23.0
18 16.08 ЮЗ 3 10 км {ливн. осадки} 9/9 600 м
[Cb calv]
+17.7 +12.5 72 +18 +18 тепло 1009.4 976.9
21 16.08 ЮЗ 3 10 км 6/6 600 м
[Sc]
+17.0 +13.3 79 +17 +17 тепло 1008.1 975.6
00 17.08 З 2 10 км 10/8 600 м
[Cb calv Cs]
+16.7 +13.6 82 +17 +17 тепло 1007.0 974.5
03 17.08 З 3 50 км в посл. час ливневой дождь 9/8
[Cb calv Cs]
+15.8 +13.4 86 +15 +16 по сезону 1006.9 974.2 +15.6 0.6
06 17.08 СЗ 4
{10}
50 км {ливн. осадки} 10/10 600 м
[Cb calv]
+15.3 +11.3 77 +14 +14 прохладно 1009.6 976.8
09 17.08 СЗ 4 20 км в посл. час ливневой дождь 10/10 600 м
[Cb calv]
+14.4 +9.9 74 +13 +13 холодно 1011.7 978.7
12 17.08 СЗ 4
{10}
20 км в посл. час ливневой дождь 9/9 600 м
[Cb calv]
+14.4 +10.6 78 +13 +13 холодно 1012.6 979.6
15 17.08 СЗ 4
{11}
50 км {ливн. осадки} 8/6 600 м
[Cb calv Cc]
+12.5 +6.9 69 +11 +11 холодно 1014.9 981.6 +16.9 0.8
18 17.08 СЗ 3 10 км {ливн. осадки} 4/0
[Ci fib]
+11.2 +7.1 76 +9 +9 холодно 1015.3 981.8
21 17.08 СЗ 2 10 км 3/0
[Ci fib]
+9.6 +6.4 80 +8 +8 холодно 1015.0 981.4
00 18.08 З 1 10 км 3/0
[Ci fib]
+8.6 +6.5 87 +8 +8 прохладно 1016.3 982.5
03 18.08 СЗ 2 20 км 9/6 600 м
[Sc Cc]
+10.5 +6.9 78 +9 +10 прохладно 1017.3 983.7 +8.2
06 18.08 СЗ 3 20 км 8/8 600 м
[Cu Sc]
+14.9 +8.1 64 +14 +16 по сезону 1017.3 984.2
09 18.08 С 2 20 км 9/9 600 м
[Cb cap]
+15.1 +7.3 60 +15 +16 прохладно 1017.1 984.0
12 18.08 СЗ 1 20 км {ливн. осадки} 9/9 1000 м
[Cb cap]
+14.1 +7.2 63 +15 +15 прохладно 1017.9 984.7
15 18.08 С 3 20 км 8/8 1000 м
[Sc]
+13.5 +6.3 62 +12 +12 прохладно 1018.7 985.4 +15.9
18 18.08 С 2 10 км 6/6 1000 м
[Sc]
+12.0 +7.3 73 +11 +11 прохладно 1019.5 986.0
21 18.08 С 2 10 км 6/0
[Ci fib]
+10.5 +7.7 83 +9 +9 прохладно 1019.9 986.2
00 19.08 СЗ 2 10 км 9/9 1000 м
[Sc]
+9.7 +7.7 87 +8 +8 прохладно 1020.0 986.2
03 19.08 СЗ 1 20 км 9/9 1000 м
[Sc]
+11.1 +7.8 80 +11 +11 прохладно 1020.5 986.9 +9.4
06 19.08 С 1 50 км 8/8 600 м
[Cb calv]
+14.1 +5.0 54 +15 +17 по сезону 1019.9 986.6
09 19.08 СЗ 2 50 км 9/9 600 м
[Cb calv]
+15.3 +3.8 46 +15 +16 прохладно 1018.8 985.7
12 19.08 В 1 50 км 9/9 600 м
[Cb calv]
+14.3 +3.8 49 +15 +15 прохладно 1018.3 985.1
15 19.08 В 1 20 км {ливн. осадки} 9/9 600 м
[Cb calv]
+12.7 +6.3 65 +13 +13 прохладно 1018.7 985.3 +16.0
18 19.08 С 2 10 км {ливн. осадки} 3/3 600 м
[Sc]
+11.1 +5.1 66 +10 +10 прохладно 1018.6 985.0
21 19.08 С 2 10 км ясно +10.1 +5.6 74 +9 +9 прохладно 1017.9 984.2
00 20.08 СЗ 1 10 км 8/8 600 м
[Sc]
+8.4 +5.1 80 +8 +8 прохладно 1017.9 984.1
03 20.08 СЗ 1 20 км 9/9 600 м
[Sc]
+10.5 +5.7 72 +10 +10 прохладно 1017.5 983.9 +8.3
06 20.08 С 2 50 км 8/6 600 м
[Cu Sc Cc]
+15.2 +6.1 55 +15 +18 по сезону 1015.8 982.8
09 20.08 СЗ 2 50 км 8/8 600 м
[Cu Sc]
+16.6 +5.7 48 +17 +19 по сезону 1014.4 981.6

 

Местоположение метеостанции Екатеринбург (Свердловская область, Россия): широта 56.83 долгота 60.63 высота над уровнем моря 281 м.

В архиве по умолчанию представлена погода в Екатеринбурге за последнюю неделю. Архивные данные за месяц целиком и за предыдущие месяцы, начиная с января 2011 года, Вы можете получить, выбрав интересующий диапазон дат из раскрывающегося списка и нажав кнопку "Ввод!".


*Определитесь, кто Вы:
робот инопланетянин человек

Внимание! Время в таблицах - всемирное. Для получения местного времени необходимо прибавить поправку, которая в Екатеринбурге равна 5 ч.

Смотрите также архив погоды в соседних городах и на ближайших метеорологических станциях:

Погода в Екатеринбурге (Бот.сад) (Свердловская область, Россия) (5 км)
Погода в Верхнем Дуброво (Свердловская область, Россия) (29 км)
Погода в Сысерти (Свердловская область, Россия) (38 км)
Погода в Ревде (Свердловская область, Россия) (40 км)
Погода в Мариинске (Свердловская область, Россия) (52 км)
Погода в Невьянске (Свердловская область, Россия) (78 км)
Погода в Верхнем Уфалее (Челябинская область, Россия) (86 км)
Погода в Каменск-Уральском (Свердловская область, Россия) (88 км)
Погода в Бисерти (Свердловская область, Россия) (95 км)
Погода в Артемовском (Свердловская область, Россия) (98 км)

Пояснения к столбцам:

Ветер - указаны скорость ветра в м/с - средняя за 10 мин, порывы в срок и между сроками (в фигурных скобках) и направление, откуда дует ветер: С - северный, СВ - северо-восточный, В - восточный, ЮВ - юго-восточный, Ю - южный, ЮЗ - юго-западный, З - западный, СЗ - северо-западный.
Видимость - горизонтальная дальность видимости в метрах или километрах. При видимости от 1 до 10 км при отсутствии осадков обычно наблюдается дымка, при ухудшении видимости до 1 км и менее - туман. В сухую погоду видимость может ухудшаться дымом, пылью или мглою.
Явления - указаны атмосферные явления, наблюдавшиеся в срок или в последний час перед сроком; фигурными скобками обозначены явления, наблюдавшиеся между сроками (за 1-3 часа до срока); квадратными скобками обозначены град или гололедные отложения с указанием их диаметра в мм.
Облачность - указаны через наклонную черту общая и нижняя облачность в баллах и высота нижней границы облаков в метрах; квадратными скобками обозначены формы облаков: Ci - перистые, Cs - перисто-слоистые, Cc - перисто-кучевые, Ac - высококучевые, As - высокослоистые, Sc - слоисто-кучевые, Ns - слоисто-дождевые, Cu - кучевые, Cb - кучево-дождевые. Подробнее классификацию облаков см. в Атласе облаков (PDF).
T - Температура воздуха - температура, измеренная на высоте 2 м над землей.
Td - Температура точки росы - температура, при понижении до которой содержащийся в воздухе водяной пар достигнет насыщения.
f - Относительная влажность воздуха - влажноcть воздуха, измеренная на высоте 2 м над землей.
Te - Эффективная температура - температура, которую ощущает одетый по сезону человек в тени. Характеристика душности погоды. При расчете учитывается влияние влажности воздуха и скорости ветра на теплоощущения человека.
Tes - Эффективная температура на солнце - температура, которую ощущает человек, с поправкой на солнечный нагрев. Характеристика знойности погоды. Зависит от высоты солнца над горизонтом, облачности и скорости ветра. Ночью, в пасмурную погоду, а также при ветре 12 м/с и более поправка равна нулю.
P - Атмосферное давление - приведенное к уровню моря атмосферное давление.
Po - Атмосферное давление - измеренное на уровне метеостанции атмосферное давление.
Tmin - Минимальная температура - минимум температуры воздуха на высоте 2 м над землей.
Tmax - Максимальная температура - максимум температуры воздуха на высоте 2 м над землей.
R - Количество осадков - Количество выпавших осадков за период времени, мм. При наведении курсора мыши на число - период времени, за который выпало указанное количество осадков.
R24 - Количество осадков - Количество выпавших осадков за 24 часа, мм.
S - Снежный покров - Высота снежного покрова, см. При наведении курсора мыши на число - состояние снежного покрова и степень покрытия местности в баллах.